Regional Weather Roundup
Issued by NWS Cleveland, OH

Home | Current Version | Previous Version | Graphics & Text | Print | Product List | Glossary On
Versions: 1 2 3 4 5 6 7 8 9 10 11 12 13 14 15 16 17 18 19 20 21 22 23 24 25 26 27 28 29 30 31 32 33 34 35 36 37 38 39 40 41 42 43 44 45 46 47 48 49 50
000
ASUS41 KCLE 021710
RWRCLE
OHIO REGIONAL WEATHER ROUNDUP
NATIONAL WEATHER SERVICE CLEVELAND, OH
100 PM EDT TUE SEP 02 2014

NOTE: "FAIR" INDICATES FEW OR NO CLOUDS BELOW 12,000 FEET WITH NO
SIGNIFICANT WEATHER AND/OR OBSTRUCTIONS TO VISIBILITY.

OHZ001>008-015>018-024>027-034-035-043-044-021800-
   NORTHWEST OHIO

CITY           SKY/WX    TMP DP  RH WIND       PRES   REMARKS
DEFIANCE       CLOUDY    70  66  87 VRB5      29.92S
FINDLAY        CLOUDY    75  65  70 SW15      29.90F
TOLEDO EXPRESS LGT RAIN  68  66  94 SW12      29.90F FOG
TOLEDO EXEC    CLOUDY    74  65  73 SW14      29.90S
LIMA           CLOUDY    73  65  75 SW9       29.94F
$$

OHZ009>014-019>023-028>033-038-089-021800-
   NORTHEAST OHIO

CITY           SKY/WX    TMP DP  RH WIND       PRES   REMARKS
CLE-HOPKINS    CLOUDY    73  67  81 SW7       29.92S
CLE-LAKEFRONT  CLOUDY    74  67  78 SW10      29.89S
CUY CO. ARPT   LGT RAIN  77  70  78 W14       29.93R FOG
LORAIN-ELYRIA  CLOUDY    77  66  68 W9        29.91F
ASHTABULA      CLOUDY    75  69  81 SW8       29.90F
AKRON-CANTON   CLOUDY    76  65  68 SW7       29.92S
WOOSTER        LGT RAIN  73  67  81 W7        29.94S
MANSFIELD      CLOUDY    71  64  78 SW8       29.95F
YOUNGSTOWN     CLOUDY    77  68  73 SW7       29.91F
$$

OHZ042-051>053-060>062-070>072-077>081-021800-
  SOUTHWEST OHIO

CITY           SKY/WX    TMP DP  RH WIND       PRES   REMARKS
CINC-COVINGTON PTSUNNY   77  67  71 W12       29.97F
CINC-LUNKEN    MOSUNNY   80  69  69 SW13      29.96F
HAMILTON       MOSUNNY   78  69  73 VRB6      29.96F
DAYTON         PTSUNNY   78  67  68 W13G18    29.97S
WRIGHT-PAT AFB PTSUNNY   76  69  79 SW12      29.95S
DAYTON GENERAL PTSUNNY   75  67  76 SW15      29.96S
WILMINGTON     MOSUNNY   75  66  73 W15G22    29.96R
$$

OHZ036-037-039>041-045>050-054>059-063>069-073>076-082>088-021800-
  CENTRAL AND SOUTHEAST OHIO

CITY           SKY/WX    TMP DP  RH WIND       PRES   REMARKS
COLUMBUS       CLOUDY    79  66  65 W12       29.94F
OSU AIRPORT    PTSUNNY   76  67  73 W10       29.94F
BOLTON FIELD   PTSUNNY   75  70  83 SW9       29.95F
RICKENBACK AFB PTSUNNY   78  64  61 SW9G16    29.94F
NEWARK         CLOUDY    77  70  79 S7G16     29.93F
MARION         CLOUDY    72  64  76 W8        29.95F
LANCASTER      PTSUNNY   78  68  71 W10       29.94S
ZANESVILLE     PTSUNNY   78  70  76 S9        29.93F
NEW PHILLY     CLOUDY    77  70  79 VRB7      29.93R
$$



USA.gov is the U.S. government's official web portal to all federal, state and local government web resources and services.